Theta_e
298 297 297 297 297 297 296 296 296 295 295 295 295 295 295 295 295 294 294 294 294 294 294 294 294 294 293 293 292 291 291 290 290 289 289 289 289 289 289 289 289 290
297 297 297 297 297 297 296 296 296 295 295 295 295 295 295 294 294 294 294 294 293 293 294 293 293 293 293 292 292 291 291 290 289 289 289 288 289 288 288 289 289 289
296 296 296 296 296 296 296 296 295 295 295 295 295 295 295 295 294 294 294 293 293 293 292 292 292 292 292 292 291 291 290 290 289 289 289 288 288 288 288 288 288 289
295 296 296 296 296 296 296 296 295 295 295 295 295 295 295 295 295 294 294 294 293 293 292 292 291 291 291 290 290 290 289 289 289 289 288 288 288 288 288 288 288 288
295 295 295 295 296 296 295 295 295 295 295 295 295 295 295 295 294 294 294 294 294 293 292 292 291 291 290 289 289 289 288 288 288 288 287 287 287 287 287 287 287 287
295 295 295 295 295 295 295 295 295 295 295 295 295 295 294 294 294 294 294 294 294 293 293 292 291 290 290 289 289 288 288 288 287 287 287 287 287 287 287 287 287 287
294 294 294 294 295 295 295 295 295 295 295 295 295 294 294 294 293 293 293 293 293 293 293 292 291 291 290 289 289 288 288 287 287 287 286 286 286 286 286 286 286 286
293 293 293 294 294 294 294 294 295 295 295 295 294 294 294 293 293 293 293 293 293 292 292 292 291 291 290 289 289 288 287 287 286 286 286 286 285 285 285 286 286 285
292 292 292 293 293 293 294 294 294 294 294 294 294 294 294 293 293 292 292 292 292 292 292 291 291 290 290 290 289 288 287 287 286 286 286 285 285 285 285 285 285 285
291 291 291 292 292 292 293 293 293 294 294 294 294 293 293 292 292 292 292 292 291 291 291 290 290 290 289 289 289 288 288 287 286 286 285 285 285 285 285 285 285 284
291 291 291 291 291 291 292 292 292 293 293 293 293 293 293 292 292 291 291 291 291 291 291 290 290 290 289 289 288 288 288 287 287 286 285 285 285 285 285 285 285 285
289 290 290 290 290 290 290 291 291 292 292 292 292 292 292 292 291 291 290 290 291 291 290 290 290 290 289 289 288 288 287 287 286 286 285 285 285 285 284 284 285 285
288 289 289 290 290 290 290 290 290 291 291 291 292 292 292 292 291 291 290 290 290 290 290 290 290 289 289 289 288 288 287 287 286 286 285 285 285 284 284 284 284 284
288 288 288 288 289 290 290 290 289 290 290 290 291 291 291 291 291 291 291 290 290 290 290 290 289 289 289 288 288 287 287 287 286 286 285 285 284 284 284 284 283 284
287 287 287 287 288 288 289 290 290 290 289 290 290 290 290 291 291 291 290 290 290 289 289 289 289 289 289 288 288 287 287 286 286 286 285 285 284 284 283 283 283 283
287 287 286 286 287 287 288 289 290 290 290 289 289 290 290 290 290 290 290 290 289 289 289 289 288 288 288 288 288 287 287 286 286 285 285 285 284 283 283 283 282 282
286 286 286 286 286 286 287 287 288 289 290 289 289 289 289 289 289 290 290 289 289 289 289 288 288 288 288 288 288 288 287 286 286 285 285 284 284 283 283 282 282 282
286 286 286 286 285 285 286 286 287 288 288 289 289 289 288 288 289 289 289 289 289 289 288 288 288 288 288 288 287 287 287 287 286 285 285 284 284 283 283 282 282 281
286 286 285 285 285 285 285 285 286 286 287 288 288 288 288 288 288 288 288 288 288 288 288 288 288 288 287 287 287 287 287 286 286 285 285 284 284 283 283 282 281 281
285 285 285 285 285 285 285 285 285 285 286 286 287 288 287 287 287 288 288 288 288 288 288 287 287 288 287 287 287 287 286 286 286 285 285 284 284 283 283 282 281 281
285 285 285 285 285 285 285 285 285 285 285 285 286 287 287 287 287 287 287 287 287 287 287 287 287 287 287 287 286 286 286 286 286 285 284 284 284 283 282 282 281 281
284 284 284 284 285 285 285 285 285 284 284 285 285 286 286 286 287 287 287 287 287 287 287 287 287 287 286 286 286 286 286 287 286 285 284 284 283 283 282 281 281 280
283 283 284 284 284 284 284 284 284 284 284 284 284 285 285 286 286 286 286 286 286 286 286 286 286 286 286 286 286 286 287 287 287 286 285 284 283 282 282 281 281 280
281 282 282 283 284 284 284 284 284 284 284 284 284 284 284 285 285 285 285 285 285 285 286 286 286 286 286 286 285 286 286 287 287 286 285 284 283 282 281 281 280 280
280 280 280 281 283 283 283 283 283 283 283 283 283 283 284 284 285 285 285 285 285 285 285 285 285 285 285 285 285 285 286 287 286 286 285 283 282 281 280 280 279 279
278 278 279 280 281 281 281 281 282 282 283 283 283 283 283 283 284 284 284 284 284 284 284 284 284 284 284 284 284 285 286 286 286 286 284 283 282 280 279 279 278 278
Wind_Speed
30 29 29 30 30 30 29 30 30 30 31 33 36 38 40 41 42 44 46 48 48 49 50 49 49 49 48 48 48 48 48 47 47 47 46 46 45 44 43 41 39 38
27 28 28 28 29 30 30 30 30 30 32 33 35 36 37 37 38 40 43 44 46 47 48 48 49 49 49 49 49 49 49 48 48 48 47 47 46 46 45 42 41 39
24 25 26 28 28 29 29 28 28 29 31 33 35 36 36 36 37 38 40 42 43 44 45 45 46 47 48 48 49 49 50 50 50 49 48 48 48 47 46 44 42 40
23 25 26 28 29 28 27 27 28 29 30 33 35 36 37 37 38 39 40 41 42 43 44 44 45 45 46 46 47 48 48 48 49 48 48 48 48 47 46 44 42 41
23 25 27 29 30 30 29 29 30 30 31 33 35 36 37 37 38 39 40 41 43 44 44 44 44 44 44 44 45 45 46 46 45 46 46 47 47 47 46 45 43 42
21 25 27 29 30 31 31 32 33 32 33 34 35 36 37 37 38 39 40 42 43 44 45 45 45 44 44 44 44 45 45 46 45 45 45 46 46 46 45 45 44 43
21 23 25 28 29 29 31 32 33 34 34 35 35 36 37 38 39 39 40 41 42 44 45 46 46 46 45 44 45 45 45 45 45 45 46 46 45 45 45 45 45 44
23 22 23 25 26 28 29 31 32 34 35 35 35 36 37 38 39 39 39 40 42 43 45 46 46 47 47 46 47 47 46 44 44 45 47 46 45 45 46 46 45 45
25 23 22 22 23 25 28 30 32 33 34 35 36 36 36 37 38 38 39 40 41 42 43 44 45 45 46 47 48 47 46 45 44 45 47 47 47 47 47 47 46 45
29 27 24 23 23 24 26 28 30 32 33 35 36 36 36 36 37 37 38 39 40 41 42 42 43 44 44 46 47 47 47 46 45 45 46 47 48 49 48 48 48 48
31 30 28 26 24 24 25 26 28 30 31 33 34 35 35 35 35 36 37 39 40 41 42 42 43 44 45 46 47 46 46 46 46 45 46 46 47 47 49 50 51 51
33 33 32 30 28 26 25 25 25 26 28 29 31 33 35 35 35 35 37 39 41 41 42 43 43 44 45 47 47 46 46 45 45 45 46 46 47 47 48 50 53 53
33 33 33 33 32 30 27 25 24 24 25 26 28 30 33 33 34 36 37 39 40 41 42 42 42 43 45 46 46 46 46 45 45 45 45 45 46 47 47 49 52 54
31 31 32 33 33 33 32 30 27 25 24 24 25 27 29 32 34 36 37 38 39 40 40 41 41 43 45 45 45 45 45 45 45 45 44 44 44 45 45 47 50 53
28 29 30 32 32 34 34 34 32 30 27 25 24 25 27 29 32 34 36 36 37 38 38 39 41 43 44 44 44 44 44 45 45 44 44 44 43 43 45 46 48 51
27 28 29 31 32 33 34 35 35 34 32 29 26 25 26 27 29 32 33 34 35 36 37 38 41 43 43 44 45 45 45 44 43 44 43 43 43 43 44 47 48 49
27 29 30 31 32 33 34 35 35 35 34 32 29 27 26 26 28 30 31 33 34 35 36 38 41 42 42 43 45 47 46 44 43 43 43 43 43 43 45 46 48 48
27 29 30 31 32 33 34 34 34 34 34 33 32 30 28 27 27 28 30 31 33 34 36 38 40 41 41 42 44 46 47 46 43 42 42 43 43 44 45 46 47 48
26 28 29 30 31 31 32 33 33 34 34 33 32 31 29 28 27 27 29 30 31 33 36 37 39 40 40 41 42 44 46 47 44 42 42 43 44 44 45 45 45 46
25 26 27 29 30 30 31 31 31 31 33 33 32 31 30 29 28 27 28 30 31 33 35 36 38 38 38 39 41 42 45 46 45 43 42 43 44 44 45 45 45 45
25 26 27 28 29 29 30 30 29 29 31 32 32 31 30 29 28 28 29 30 31 32 34 35 36 35 35 37 39 40 42 43 43 43 42 42 42 42 43 43 44 44
24 25 26 27 28 28 28 29 29 29 30 30 29 30 31 30 29 29 28 30 31 31 32 35 35 33 33 35 36 37 38 39 40 41 41 41 40 40 40 41 41 43
24 25 26 27 27 26 27 28 28 29 30 29 28 29 29 29 29 30 29 29 30 31 31 33 34 32 32 33 34 34 35 36 37 38 39 40 39 38 39 40 41 42
26 26 27 28 27 27 27 28 28 29 29 29 28 29 29 29 29 29 29 29 30 31 32 33 34 33 32 32 33 33 34 36 36 35 36 38 37 36 37 38 39 40
28 28 29 29 29 28 29 30 30 30 30 29 28 28 29 30 29 28 30 30 30 31 32 32 34 33 32 32 32 31 34 36 35 34 34 35 33 32 32 34 36 38
29 30 30 30 30 31 32 32 32 32 31 30 29 29 29 29 29 28 30 31 31 30 31 31 32 32 31 31 32 31 33 36 36 35 34 32 31 31 31 32 34 36
Wind_Direction
235 235 234 233 233 234 234 233 230 227 225 225 225 225 225 225 224 222 222 221 221 221 222 221 221 221 221 221 222 222 223 224 224 224 224 223 223 222 222 222 221 221
242 242 241 239 238 237 237 236 235 232 230 230 231 231 230 229 227 225 225 223 222 223 222 222 221 221 221 221 221 221 222 222 223 223 223 223 223 223 223 224 223 222
252 250 248 247 244 243 241 240 240 238 236 235 234 234 233 232 231 229 228 226 225 225 224 223 223 222 222 221 221 221 221 221 222 222 222 223 223 223 224 224 223 222
261 258 255 253 250 249 247 245 244 243 241 239 237 236 236 235 233 231 229 228 227 227 226 225 225 224 223 222 221 221 221 222 222 221 221 222 222 222 222 222 222 222
273 267 262 258 254 251 249 247 246 245 244 243 241 240 238 236 233 231 230 229 228 227 227 226 226 225 224 223 222 222 221 221 221 221 221 221 221 221 221 221 221 221
289 280 271 265 259 255 251 248 248 247 246 246 244 242 240 237 235 232 230 229 228 227 226 226 226 225 224 224 223 223 223 222 221 220 220 221 220 220 220 220 221 221
312 298 284 274 267 262 258 255 253 251 250 250 247 244 242 239 237 234 232 230 229 227 226 225 225 224 223 223 223 224 223 223 222 221 220 220 219 219 218 219 220 220
335 320 303 288 276 270 266 263 260 258 255 253 251 248 246 242 239 236 233 231 229 228 227 225 224 223 222 222 222 223 222 222 221 220 220 218 217 218 217 217 218 218
358 344 328 310 294 284 277 272 269 265 261 257 254 252 249 245 242 238 235 232 230 229 227 226 225 223 222 222 221 221 221 221 221 220 220 217 216 217 217 216 215 216
11 4 351 334 319 305 295 287 280 273 267 262 258 254 251 248 245 240 236 233 231 229 227 226 224 223 222 222 222 221 220 220 220 220 220 218 217 217 216 215 215 214
12 10 4 353 339 324 312 302 291 282 273 267 261 257 253 250 246 242 237 234 232 231 229 227 226 224 223 223 223 222 221 221 220 220 220 220 219 218 216 216 215 215
9 8 5 1 354 343 330 317 305 293 283 274 266 261 257 252 248 243 239 236 234 233 231 229 227 225 224 224 223 222 221 221 221 221 221 221 220 219 217 216 216 216
6 5 3 2 0 356 349 338 325 310 297 286 276 267 260 254 249 246 242 240 237 235 233 232 229 227 226 225 224 222 221 220 220 220 221 221 221 221 219 218 217 216
2 2 2 1 1 360 358 353 345 333 318 305 291 277 267 260 254 250 247 244 240 238 236 234 231 229 228 226 224 222 220 220 219 219 219 220 221 222 221 220 219 217
357 358 359 0 0 0 359 357 354 348 338 326 310 294 281 271 262 255 250 247 243 240 238 235 232 231 230 227 225 222 221 220 220 219 219 219 220 221 221 221 220 219
352 354 355 358 359 359 358 356 355 352 347 340 328 313 298 285 273 263 255 250 246 242 239 236 234 234 232 230 227 224 222 221 220 220 219 218 218 219 220 221 221 220
349 350 352 354 355 356 356 354 353 352 350 345 338 328 315 300 284 271 261 255 250 246 243 239 238 237 235 233 231 228 224 221 220 220 219 219 219 219 219 219 219 220
345 346 348 349 351 352 352 352 351 350 349 345 341 335 326 312 296 281 270 262 255 250 247 244 243 241 238 235 233 230 227 224 222 221 220 219 220 220 220 219 218 218
341 342 343 343 344 345 346 348 348 347 345 343 339 336 330 320 306 292 280 269 260 254 251 249 247 244 241 238 235 232 229 226 224 223 221 221 221 221 220 219 218 216
336 337 338 338 339 339 340 342 343 342 342 340 337 334 329 322 313 302 289 277 267 260 256 253 251 248 244 240 237 234 230 227 225 224 224 224 223 222 221 220 219 216
331 332 331 332 333 334 334 335 335 335 336 337 335 331 327 321 315 306 295 285 275 266 260 257 254 251 248 243 239 235 231 228 226 226 226 226 225 224 223 221 220 217
327 326 325 325 326 326 326 327 327 327 328 330 330 328 325 320 315 308 299 290 282 273 265 261 259 255 250 246 241 236 230 227 226 226 226 227 227 225 224 223 221 218
323 322 320 319 319 318 317 318 319 319 320 322 322 321 320 317 313 308 301 293 286 279 271 267 264 260 254 249 244 236 229 226 226 226 226 227 228 226 224 223 221 219
320 320 317 315 313 311 311 312 312 311 312 314 314 313 313 313 310 305 300 294 287 281 276 272 269 266 258 252 247 237 229 227 226 225 226 227 227 226 224 222 221 220
316 317 315 312 309 308 309 309 308 306 306 307 307 306 305 306 306 302 298 294 288 282 278 273 270 268 262 255 248 236 229 228 228 226 226 226 224 223 222 221 220 219
310 313 312 309 307 307 308 307 305 304 304 304 303 301 299 299 299 296 294 293 289 283 278 273 269 267 263 257 248 236 227 227 227 226 225 224 221 219 219 218 218 217